When you browse on this site, cookies collect data to enhance your experience and personalize the content and advertising you see.
Visit our Privacy Policy to learn more. By continuing to use the site, you agree to this use of cookies and data.
  • In United Kingdom
  • List of Countries
  • For 7 days
  • Water Temperature
  • Weather Map
  • Weather Widgets
  • user-avatar
    Login

    Hourly Weather Northampton

    Today, 2 June, Tuesday

    Time Temperature Precipitation Wind Pressure Humidity
    00:00 +9°C° 0 mm 2 mps 758 mmHg 93%
    01:00 +9°C° 0 mm 2 mps 758 mmHg 93%
    02:00 +8°C° 0 mm 2 mps 758 mmHg 93%
    03:00 +8°C° 0 mm 2 mps 758 mmHg 93%
    04:00 +9°C° 0 mm 2 mps 758 mmHg 91%
    05:00 +9°C° 0 mm 2 mps 758 mmHg 89%
    06:00 +10°C° 0 mm 2 mps 758 mmHg 87%
    07:00 +13°C° 0 mm 2 mps 757 mmHg 81%
    08:00 +15°C° 0 mm 2 mps 757 mmHg 75%
    09:00 +16°C° 0 mm 2 mps 757 mmHg 69%
    10:00 +17°C° 0 mm 2 mps 757 mmHg 66%
    11:00 +18°C° 0 mm 2 mps 757 mmHg 63%
    12:00 +19°C° 0 mm 2 mps 756 mmHg 59%
    13:00 +19°C° 0 mm 2 mps 756 mmHg 59%
    14:00 +20°C° 0 mm 2 mps 755 mmHg 58%
    15:00 +20°C° 0 mm 2 mps 755 mmHg 58%
    16:00 +20°C° 0 mm 2 mps 754 mmHg 63%
    17:00 +20°C° 0 mm 2 mps 754 mmHg 67%
    18:00 +20°C° 0 mm 1 mps 753 mmHg 72%
    19:00 +18°C° 0 mm 1 mps 753 mmHg 75%
    20:00 +15°C° 0 mm 1 mps 753 mmHg 77%
    21:00 +13°C° 0 mm 1 mps 753 mmHg 80%
    22:00 +13°C° 0 mm 1 mps 752 mmHg 80%
    23:00 +13°C° 0 mm 2 mps 752 mmHg 80%

    Tomorrow, 3 June, Wednesday

    Time Temperature Precipitation Wind Pressure Humidity
    00:00 +13°C° 0 mm 2 mps 751 mmHg 81%
    01:00 +13°C° 0 mm 2 mps 751 mmHg 80%
    02:00 +12°C° 0 mm 2 mps 750 mmHg 80%
    03:00 +12°C° 0 mm 2 mps 749 mmHg 80%
    04:00 +13°C° 0 mm 2 mps 749 mmHg 80%
    05:00 +12°C° 0 mm 3 mps 749 mmHg 80%
    06:00 +13°C° 0 mm 3 mps 748 mmHg 81%
    07:00 +13°C° 0 mm 3 mps 748 mmHg 83%
    08:00 +12°C° 0 mm 3 mps 748 mmHg 86%
    09:00 +12°C° 0 mm 3 mps 748 mmHg 88%
    10:00 +12°C° 0.1 mm 4 mps 748 mmHg 89%
    11:00 +11°C° 0.1 mm 4 mps 748 mmHg 89%
    12:00 +10°C° 0.1 mm 5 mps 748 mmHg 89%
    13:00 +10°C° 0.1 mm 5 mps 748 mmHg 89%
    14:00 +10°C° 0.1 mm 5 mps 748 mmHg 88%
    15:00 +10°C° 0.1 mm 5 mps 747 mmHg 88%
    16:00 +10°C° 0 mm 5 mps 747 mmHg 86%
    17:00 +12°C° 0 mm 4 mps 747 mmHg 85%
    18:00 +12°C° 0 mm 4 mps 747 mmHg 83%
    19:00 +11°C° 0 mm 4 mps 747 mmHg 85%
    20:00 +10°C° 0 mm 3 mps 747 mmHg 86%
    21:00 +10°C° 0 mm 3 mps 748 mmHg 88%
    22:00 +9°C° 0 mm 3 mps 747 mmHg 89%
    23:00 +8°C° 0 mm 4 mps 747 mmHg 91%

    Day after tomorrow, 4 June, Thursday

    Time Temperature Precipitation Wind Pressure Humidity
    00:00 +7°C° 0 mm 4 mps 747 mmHg 92%
    01:00 +8°C° 0 mm 4 mps 747 mmHg 92%
    02:00 +8°C° 0 mm 4 mps 747 mmHg 92%
    03:00 +8°C° 0 mm 5 mps 746 mmHg 92%
    04:00 +8°C° 0 mm 5 mps 746 mmHg 89%
    05:00 +8°C° 0 mm 5 mps 746 mmHg 86%
    06:00 +8°C° 0 mm 5 mps 746 mmHg 83%
    07:00 +9°C° 0 mm 5 mps 745 mmHg 78%
    08:00 +10°C° 0 mm 5 mps 745 mmHg 72%
    09:00 +10°C° 0 mm 5 mps 745 mmHg 66%
    10:00 +12°C° 0.1 mm 5 mps 745 mmHg 65%
    11:00 +12°C° 0.1 mm 5 mps 745 mmHg 65%
    12:00 +12°C° 0.1 mm 5 mps 744 mmHg 64%
    13:00 +12°C° 0.2 mm 5 mps 744 mmHg 64%
    14:00 +13°C° 0.2 mm 5 mps 744 mmHg 65%
    15:00 +13°C° 0.2 mm 5 mps 743 mmHg 65%
    16:00 +13°C° 0.2 mm 4 mps 743 mmHg 69%
    17:00 +13°C° 0.2 mm 3 mps 743 mmHg 73%
    18:00 +12°C° 0.2 mm 3 mps 743 mmHg 76%
    19:00 +11°C° 0.5 mm 3 mps 743 mmHg 82%
    20:00 +10°C° 0.5 mm 3 mps 743 mmHg 88%
    21:00 +8°C° 0.5 mm 3 mps 743 mmHg 94%
    22:00 +7°C° 0.2 mm 3 mps 743 mmHg 93%
    23:00 +7°C° 0.2 mm 3 mps 743 mmHg 93%

    5 June, Friday

    Time Temperature Precipitation Wind Pressure Humidity
    00:00 +6°C° 0.2 mm 2 mps 743 mmHg 92%
    01:00 +4°C° 0 mm 3 mps 743 mmHg 92%
    02:00 +3°C° 0 mm 3 mps 743 mmHg 91%
    03:00 +3°C° 0 mm 3 mps 743 mmHg 91%
    04:00 +4°C° 0 mm 4 mps 743 mmHg 89%
    05:00 +5°C° 0 mm 4 mps 743 mmHg 88%
    06:00 +6°C° 0 mm 4 mps 743 mmHg 87%
    07:00 +7°C° 0 mm 5 mps 743 mmHg 79%
    08:00 +9°C° 0 mm 5 mps 743 mmHg 71%
    09:00 +12°C° 0 mm 5 mps 743 mmHg 63%
    10:00 +12°C° 0.1 mm 5 mps 743 mmHg 65%
    11:00 +13°C° 0.1 mm 5 mps 743 mmHg 68%
    12:00 +13°C° 0.1 mm 5 mps 743 mmHg 70%
    13:00 +13°C° 0.2 mm 5 mps 743 mmHg 70%
    14:00 +13°C° 0.2 mm 5 mps 742 mmHg 70%
    15:00 +13°C° 0.2 mm 5 mps 742 mmHg 71%
    16:00 +13°C° 0 mm 5 mps 742 mmHg 72%
    17:00 +12°C° 0 mm 4 mps 742 mmHg 73%
    18:00 +12°C° 0 mm 4 mps 742 mmHg 74%
    19:00 +11°C° 0.1 mm 3 mps 742 mmHg 78%
    20:00 +10°C° 0.1 mm 3 mps 742 mmHg 83%
    21:00 +10°C° 0.1 mm 3 mps 742 mmHg 87%
    22:00 +9°C° 0.1 mm 3 mps 741 mmHg 90%
    23:00 +9°C° 0.1 mm 3 mps 741 mmHg 93%

    6 June, Saturday

    Time Temperature Precipitation Wind Pressure Humidity
    00:00 +9°C° 0.1 mm 3 mps 741 mmHg 97%
    01:00 +8°C° 0.1 mm 3 mps 741 mmHg 97%
    02:00 +7°C° 0.1 mm 4 mps 741 mmHg 96%
    03:00 +7°C° 0.1 mm 4 mps 741 mmHg 96%
    04:00 +7°C° 0 mm 4 mps 741 mmHg 95%
    05:00 +8°C° 0 mm 5 mps 741 mmHg 93%
    06:00 +8°C° 0 mm 5 mps 742 mmHg 92%
    07:00 +9°C° 0.2 mm 5 mps 742 mmHg 87%
    08:00 +10°C° 0.2 mm 6 mps 742 mmHg 83%
    09:00 +11°C° 0.2 mm 6 mps 743 mmHg 78%
    10:00 +11°C° 0.2 mm 6 mps 743 mmHg 71%
    11:00 +12°C° 0.2 mm 7 mps 743 mmHg 63%
    12:00 +12°C° 0.2 mm 7 mps 743 mmHg 56%
    13:00 +12°C° 0.1 mm 7 mps 743 mmHg 56%
    14:00 +12°C° 0.1 mm 7 mps 743 mmHg 57%
    15:00 +12°C° 0.1 mm 7 mps 743 mmHg 57%
    16:00 +11°C° 0.1 mm 7 mps 743 mmHg 61%
    17:00 +10°C° 0.1 mm 6 mps 743 mmHg 65%
    18:00 +10°C° 0.1 mm 6 mps 743 mmHg 68%
    19:00 +8°C° 0 mm 5 mps 744 mmHg 70%
    20:00 +7°C° 0 mm 5 mps 744 mmHg 71%
    21:00 +5°C° 0 mm 4 mps 744 mmHg 73%
    22:00 +5°C° 0 mm 5 mps 744 mmHg 74%
    23:00 +3°C° 0 mm 5 mps 745 mmHg 76%

    7 June, Sunday

    Time Temperature Precipitation Wind Pressure Humidity
    00:00 +3°C° 0 mm 5 mps 745 mmHg 77%
    01:00 +3°C° 0 mm 5 mps 745 mmHg 77%
    02:00 +3°C° 0 mm 6 mps 744 mmHg 77%
    03:00 +3°C° 0 mm 6 mps 744 mmHg 77%
    04:00 +4°C° 0 mm 6 mps 745 mmHg 76%
    05:00 +4°C° 0 mm 7 mps 745 mmHg 74%
    06:00 +5°C° 0 mm 7 mps 745 mmHg 73%
    07:00 +6°C° 0.1 mm 7 mps 746 mmHg 71%
    08:00 +8°C° 0.1 mm 7 mps 746 mmHg 69%
    09:00 +9°C° 0.1 mm 7 mps 746 mmHg 67%
    10:00 +9°C° 0.2 mm 7 mps 747 mmHg 66%
    11:00 +10°C° 0.2 mm 7 mps 747 mmHg 65%
    12:00 +10°C° 0.2 mm 7 mps 747 mmHg 64%
    13:00 +10°C° 0.2 mm 7 mps 748 mmHg 64%
    14:00 +11°C° 0.2 mm 7 mps 748 mmHg 65%
    15:00 +11°C° 0.2 mm 7 mps 748 mmHg 65%
    16:00 +11°C° 0.1 mm 6 mps 748 mmHg 66%
    17:00 +10°C° 0.1 mm 6 mps 748 mmHg 68%
    18:00 +10°C° 0.1 mm 5 mps 749 mmHg 69%
    19:00 +8°C° 0 mm 4 mps 749 mmHg 74%
    20:00 +7°C° 0 mm 4 mps 749 mmHg 78%
    21:00 +5°C° 0 mm 3 mps 750 mmHg 83%
    22:00 +4°C° 0 mm 3 mps 749 mmHg 86%
    23:00 +4°C° 0 mm 4 mps 749 mmHg 88%
    Show more